DMSP 5D-2 F14 DEB, 62941

Orbit data source: Space-Track

DMSP 5D-2 F14 DEB, 62941 is space debris in SSO originally from a launch on Fri, 04 Apr 1997 UTC launched from the Air Force Western Test Range (AFWTR). Debris objects in space refer to the collection of defunct objects orbiting the Earth. Examples of debris include non-operational satellites, rocket bodies, and fragments generated from explosions, collisions, or faulty payload assembly.

Loading next visibility...
Identifier
62941, 1997-012M
Orbit
SSO
Country
Flag of USUS
Related business
Manufacturer
LMT/EW
Mission
Spacecraft
Bus & Motor
Unknown
Mass
Unknown
Launch date (UTC)
1997-04-04 (29 years ago)
Launch vehicle
Unknown
Launch site
Air Force Western Test Range (AFWTR)
Object type
Payload
Rocket body
Debris
Shape & HBR
Unknown shape, 0.2 m
Radar Cross Section
Medium (>0.1 m² and <1 m²)

Expand to show TLE details & history
Last TLE update: 9 hours ago

TLE from 9 hours ago
0 DMSP 5D-2 F14 DEB
1 62941U 97012M   26171.46483987  .00035899  00000-0  13193-1 0  9999
2 62941  99.4255 238.3328 0046662  98.2477 262.4000 14.31905354508695
Epoch: 2026-06-20T11:09Z
TLE epoch observation values (Epoch: 2026-06-20T11:09:22.164Z)
Latitude
0.00004°
Longitude
162.31136°
Altitude
792.851 km
Speed
7.455 km/s
True Right ascension
15h 53m 19s
True Declination
0° 00' 00"
Sunlit
Object was in full shadow at epoch
Visualization orbit readout
Latitude
Unknown
Longitude
Unknown
Altitude
Unknown
Speed
Unknown
Apparent Right ascension
Unknown
Apparent Declination
Unknown
Sunlit
N/A
Visualization observer readout
Local Sidereal Time
07:15:02
Azimuth
Unknown
Elevation
Unknown
Doppler factor
Unknown
Orbital elements
Apogee altitude
815.961 km
Perigee altitude
749.134 km
Semi-major axis
7,160.685 km
Eccentricity
0.00467
Inclination
99.4255°
RAAN
238.3328°
Arg. of periapsis
98.2477°
True anomaly
261.87041°
Mean anomaly
262.4°
Eccentric anomaly
262.13516°
Mean motion
3.58188 °/min
Orbital period
100.51 mins
BSTAR
0.013193
Loading maneuver chart data...
Computing Atmospheric mass density...

Documentation

Showing up to 5 results
|